Погода в Великом Селе

Россия / Новгородская область     57°41′30″N   31°44′23″E
темп.,
°C
ветер,
м/с
пор.,
м/с
влажн.,
%
обл.,
%
осадки,
мм/ч
давл.,
гПа
погр.,
м
22 мая, вс
вс2200:00+7всв412615 0.0 1008429
03:00+3всв311764 0.0 1009354
06:00+3всв310740 0.0 1009394
09:00+8св46513 0.0 10091043
12:00+11св46330 0.0 10091751
15:00+13ссв46304 0.0 10092064
18:00+13ссв46350 0.0 10091899
21:00+6с27580 0.0 1010126
23 мая, пн
пн2300:00+2с210680 0.0 1011193
03:000с23750 0.0 101244
06:00+2ссз26675 0.0 1012149
09:00+9ссз374570 0.0 1011862
12:00+13ссз58425 0.0 10101635
15:00+14ссз594898 0.0 10101927
18:00+13ссз512579 0.0 10091422
21:00+9с397229 0.0 1010272
24 мая, вт
вт2400:00+6зсз2588100 0.0 1010101
03:00+6зсз2993100 0.0 1010223
06:00+6сз269037 0.0 1011254
09:00+11ссз4837100 0.0 1011866
12:00+14ссз5103173 0.0 10111412
15:00+15ссз6925100 0.0 10121658
18:00+14с483290 0.0 10121156
21:00+7св266582 0.0 1014138
25 мая, ср
ср2500:00+5в1187100 0.0 101510
03:00+4св009085 0.0 101610
06:00+5ссв00860 0.0 101750
09:00+11с12580 0.0 1016738
12:00+15ссз23420 0.0 10151244
15:00+18сз34322 0.0 10141632
18:00+17с234098 0.0 1013985
21:00+11вюв2262100 0.0 101213
26 мая, чт
чт2600:00+8юв226460 0.0 101129
03:00+8юв256548 0.0 100982
06:00+9юв2770100 0.0 1007163
09:00+12юв3869100 0.0 1004322
12:00+11ююв2593100 0.5 1002168
15:00+11зюз2598100 5.1 1001409
18:00+9зсз31097100 5.6 1002633
21:00+9зсз1298100 5.8 100265